Regional Weather Roundup
Issued by NWS

Home | Current Version | Previous Version | Text Only | Print | Product List | Glossary Off
Versions: 1 2 3 4 5 6 7 8 9 10 11 12 13 14 15 16 17 18 19 20 21 22 23 24 25 26 27 28 29 30 31 32 33 34 35 36 37 38 39 40 41 42 43 44 45 46 47 48 49 50

778
ASUS44 KLIX 181701
RWRLA
LOUISIANA WEATHER ROUNDUP
NATIONAL WEATHER SERVICE NEW ORLEANS LA
1200 PM CDT FRI APR 18 2014

NOTE: "FAIR" INDICATES FEW OR NO CLOUDS BELOW 12,000 FEET WITH NO
      SIGNIFICANT WEATHER AND/OR OBSTRUCTIONS TO VISIBILITY.
      SKY/WX - SKY CONDITION AND SIGNIFICANT WEATHER.
      TMP - AIR TEMPERATURE.    DP   - DEWPOINT TEMPERATURE.
      RH  - RELATIVE HUMIDITY.  PRES - PRESSURE.
      HX  - HEAT INDEX.         WCI  - WIND CHILL INDEX.

*  THESE STATIONS ARE NOT NWS OR FAA STATIONS AND ARE NOT UNDER
   NWS QUALITY CONTROL.

LAZ040-048-061>063-065-066-069-181800-
SOUTHEAST LOUISIANA

CITY           SKY/WX    TMP DP  RH WIND       PRES   REMARKS
N.O. AUDUBON   NOT AVBL
N.O. INTL ARPT PTSUNNY   69  60  73 N14       30.09F
N.O. LAKEFRONT PTSUNNY   69  62  78 N8        30.10F
N.O. DOWNTOWN* CLOUDY    68  57  68 N10G16    30.09F
SLIDELL        CLOUDY    68  59  73 N16G22    30.09F
BATON ROUGE    MOSUNNY   75  58  55 NE10      30.11F
BOOTHVILLE     PTSUNNY   65  61  87 NE9       30.05F
BELLE CHASSE   PTSUNNY   69  59  70 NE9G20    30.08F
BOGALUSA*        N/A     67  58  72 N12G17    30.13F
GALLIANO*      NOT AVBL
NEW ROADS*     NOT AVBL
GONZALES*      NOT AVBL
HAMMOND*       NOT AVBL
HOUMA*         MOSUNNY   72  59  64 N12       30.09F
PORT FOURCHON* MOSUNNY   68  61  77 N13       30.08F

$$

LAZ041-044-053-054-181800-
SOUTHWEST LOUISIANA

CITY           SKY/WX    TMP DP  RH WIND       PRES   REMARKS
LAKE CHARLES   MOSUNNY   71  57  61 N10       30.14F
LAFAYETTE      PTSUNNY   71  59  65 N13       30.13F
PATTERSON      MOSUNNY   73  61  64 N12G20    30.13
SALT POINT       N/A     74  60  61 VRB5      30.10S
NEW IBERIA     PTSUNNY   71  59  65 N10       30.13F
CHENAULT AIRPK MOSUNNY   70  55  60 N7G16     30.16F

$$

LAZ027-028-181800-
CENTRAL LOUISIANA

CITY           SKY/WX    TMP DP  RH WIND       PRES   REMARKS
FORT POLK      SUNNY     69  56  62 VRB7      30.17F
ALEXANDRIA INT CLOUDY    62  57  83 N6        30.16F
ALEXANDRIA     CLOUDY    64  56  75 VRB3      30.17F

$$

LAZ001-002-181800-
NORTHWEST LOUISIANA

CITY           SKY/WX    TMP DP  RH WIND       PRES   REMARKS
SHREVEPORT     PTSUNNY   71  56  58 N9        30.20F
BARKSDALE AFB  NOT AVBL
DTN SHREVEPORT PTSUNNY   68  54  60 N8        30.21F

$$

LAZ014-016-181800-
NORTHEAST LOUISIANA

CITY           SKY/WX    TMP DP  RH WIND       PRES   REMARKS
MONROE         PTSUNNY   68  56  65 NW10      30.20F
TALLULAH       NOT AVBL

$$




USA.gov is the U.S. government's official web portal to all federal, state and local government web resources and services.